Bethel Airport
PABE : now visible

Airfield :











YOU CAN JOIN US ON...

 
LOGIN :

Register | Disclaimer

   EN    FR    IT 

 









Legend :    VFR   Marginal VFR   IFR   Intensive IFR   Very Intensive IFR
Visi :
Ceiling :
>= 8 km
>= 3000ft
5 to 8 km
1000 to 3000 ft
1500m to 5 km
500 to 1000 ft
800 to 1500m
200 to 500 ft
< 800m
< 200 ft
Symbols :   Thunderstorms  Fog  Heavy snow  Heavy precipitations  Wind > 20 kt






- Airport Elevation : 126 ft
- IATA code : BET


PABE - Bethel

CURRENT METAR :
  • 272253Z 03014KT 10SM CLR 06/M02 A2955 RMK AO2 SLP008 T00611017

EXPIRED METARs :
  • 272153Z 04015KT 10SM CLR 06/M01 A2957 RMK AO2 SLP014 T00561011
  • 272053Z 04014G21KT 10SM CLR 04/M02 A2958 RMK AO2 SLP019 T00441022 56022

TAF PABE
Valid from the 27 at 22:00 until the 28 at 18:00 UTC


272134Z 2722/2818 03014G20KT P6SM FEW250
FM280400 36011KT P6SM SKC
FM281000 34006KT P6SM VCFG SCT001
PAZA FIR / North America



MET'MAP, your aeronautical weather chart ! - Copyright ORBIFLY December 2007 - Disclaimer

ORBIFLY MET'MAP TEAM :

Programming & Development : Alexandra Zaïnal
Concept & original design : Baudouin d'Aumeries
Assistance for programming : Marc-Olivier Méhu
Technical & hardware support : Manuel Goepfert

Contact : metmap@orbifly.com




SOURCES & CREDITS :

   NOAA       Earth
Advisory